Location: Fontevrault
(47.1823°N, 0.0493°E)
Time: 15:20:00
(UTC+00:00)

Cosmos 2369 Rocket - Pass Details

Date: 16 June 2021
Orbit: 828 x 853 km, 71.0° (Epoch: 04 August)

Event Time Altitude Azimuth Distance (km) Brightness Sun altitude
Rises 23:28:57 0° 338° (NNW) 3,432 6.8 -19.1°
Reaches altitude 10° 23:32:04 10° 355° (N) 2,494 5.9 -19.1°
Maximum altitude 23:36:18 21° 43° (NE) 1,841 4.4 -19.2°
Drops below altitude 10° 23:40:32 10° 91° (E) 2,485 4.6 -19.3°
Sets 23:43:37 0° 107° (ESE) 3,415 5.1 -19.3°
